الكل
Gamurruguyurru Airport YGMG حالة الطقس
There is no TAF data available at YGMG or any nearby airports.
There is no METAR data available at YGMG. Showing METAR data for YMGB (9 mi E).
محفوظات أحدث تقرير روتيني عن حالة الطقس من أجل الطيران (الميتار) MGT ( لا توجد بيانات لـYGMG)
| Date | Time (ACST) | Flight Rules | Wind Dir. | Speed | Type | Height AGL (ft) | Visibility | Temp (°C) | Temp (°F) | Dew Point (°C) | Dew Point (°F) | Rel. Humid. | Pressure | Density Altitude | Remarks |
|---|---|---|---|---|---|---|---|---|---|---|---|---|---|---|---|
| 04-ماي | 23:30 | n/a | 150° | 1 kt | Missing | 24° | 75° | 23° | 73° | 94% | 1012 mb | 1,169 ft | |||
| 04-ماي | 22:30 | n/a | 170° | 1 kt | Missing | 25° | 77° | 24° | 75° | 94% | 1012 mb | 1,289 ft | |||
| 04-ماي | 21:30 | n/a | Calm | Missing | 25° | 77° | 24° | 75° | 94% | 1012 mb | 1,289 ft | ||||
| 04-ماي | 20:30 | n/a | Calm | Missing | 25° | 77° | 24° | 75° | 94% | 1012 mb | 1,289 ft | ||||
| 04-ماي | 19:30 | n/a | 100° | 5 kt | Missing | 25° | 77° | 23° | 73° | 89% | 1012 mb | 1,289 ft | |||
| 04-ماي | 18:30 | n/a | 170° | 12 kt | Missing | 26° | 78° | 23° | 73° | 84% | 1011 mb | 1,438 ft | |||
| 04-ماي | 17:30 | n/a | 20° | 5 kt | Missing | 30° | 86° | 24° | 75° | 70% | 1010 mb | 1,948 ft | |||
| 04-ماي | 16:30 | n/a | 360° | 6 kt | Missing | 31° | 87° | 24° | 75° | 66% | 1009 mb | 2,097 ft | |||
| 04-ماي | 15:30 | n/a | 70° | 7 kt | Missing | 32° | 89° | 23° | 73° | 59% | 1009 mb | 2,217 ft | |||
| 04-ماي | 14:30 | n/a | 70° | 7 kt | Missing | 32° | 89° | 24° | 75° | 63% | 1010 mb | 2,188 ft | |||
| 04-ماي | 13:30 | n/a | 50° | 7 kt | Missing | 32° | 89° | 24° | 75° | 63% | 1010 mb | 2,188 ft | |||
| 04-ماي | 12:30 | n/a | 100° | 7 kt | Missing | 32° | 89° | 23° | 73° | 59% | 1011 mb | 2,158 ft | |||
| 04-ماي | 11:30 | n/a | 110° | 8 kt | Missing | 30° | 86° | 24° | 75° | 70% | 1012 mb | 1,889 ft | |||
| 04-ماي | 10:30 | n/a | 120° | 8 kt | Missing | 31° | 87° | 24° | 75° | 66% | 1012 mb | 2,009 ft | |||
| 04-ماي | 09:30 | n/a | 120° | 7 kt | Missing | 30° | 86° | 24° | 75° | 70% | 1012 mb | 1,889 ft | |||
| 04-ماي | 08:30 | n/a | 130° | 7 kt | Missing | 28° | 82° | 24° | 75° | 79% | 1012 mb | 1,649 ft | |||
| 04-ماي | 07:30 | n/a | 150° | 6 kt | Missing | 26° | 78° | 24° | 75° | 89% | 1011 mb | 1,438 ft | |||
| 04-ماي | 06:30 | n/a | 120° | 3 kt | Missing | 25° | 77° | 24° | 75° | 94% | 1010 mb | 1,348 ft | |||
| 04-ماي | 05:30 | n/a | 90° | 4 kt | Missing | 25° | 77° | 24° | 75° | 94% | 1010 mb | 1,348 ft | |||
| 04-ماي | 04:30 | n/a | 150° | 4 kt | Missing | 25° | 77° | 24° | 75° | 94% | 1010 mb | 1,348 ft | |||
| 04-ماي | 03:30 | n/a | 140° | 4 kt | Missing | 25° | 77° | 24° | 75° | 94% | 1010 mb | 1,348 ft | |||
| 04-ماي | 02:30 | n/a | 120° | 2 kt | Missing | 25° | 77° | 24° | 75° | 94% | 1010 mb | 1,348 ft | |||
| 04-ماي | 01:30 | n/a | 150° | 5 kt | Missing | 26° | 78° | 24° | 75° | 89% | 1011 mb | 1,438 ft | |||
| 04-ماي | 00:30 | n/a | 110° | 3 kt | Missing | 26° | 78° | 24° | 75° | 89% | 1011 mb | 1,438 ft |
تسجيل الدخول
| مُتصفحك غير مُدعَّم. قم بترقية متصفحك |
